This is the latest recevied weather packets stored in our database for station/object N9CQS-13. If no packets are shown the sender has not sent any weather packets the latest 10 day(s).
| Time | Temp. | Humidity | Pressure | Rain* | Wind** | Luminosity | Snow |
|---|---|---|---|---|---|---|---|
| 1777249892 | 21.11° C | 53% | 1012.8 hPa | 0 mm | - | - | - |
| 1777249292 | 21.67° C | 52% | 1012.6 hPa | 0 mm | - | - | - |
| 1777248692 | 22.22° C | 51% | 1012.5 hPa | 0 mm | - | - | - |
| 1777248092 | 22.22° C | 49% | 1012.4 hPa | 0 mm | - | - | - |
| 1777247492 | 22.78° C | 48% | 1012.5 hPa | 0 mm | - | - | - |
| 1777246892 | 23.33° C | 47% | 1012.4 hPa | 0 mm | - | - | - |
| 1777246292 | 23.33° C | 47% | 1012.4 hPa | 0 mm | - | - | - |
| 1777245692 | 24.44° C | 45% | 1012.4 hPa | 0 mm | - | - | - |
| 1777245092 | 24.44° C | 45% | 1012.4 hPa | 0 mm | - | - | - |
| 1777244492 | 25° C | 44% | 1012.4 hPa | 0 mm | - | - | - |
| 1777243892 | 25.56° C | 43% | 1012.4 hPa | 0 mm | - | - | - |
| 1777243292 | 25.56° C | 42% | 1012.4 hPa | 0 mm | - | - | - |
| 1777242692 | 27.22° C | 40% | 1012.4 hPa | 0 mm | - | - | - |
| 1777242092 | 26.11° C | 41% | 1012.5 hPa | 0 mm | - | - | - |
| 1777241492 | 26.11° C | 40% | 1012.3 hPa | 0 mm | - | - | - |
| 1777240892 | 25.56° C | 42% | 1012.2 hPa | 0 mm | - | - | - |
| 1777240292 | 26.11° C | 42% | 1012.1 hPa | 0 mm | - | - | - |
| 1777239692 | 26.67° C | 42% | 1012.1 hPa | 0 mm | - | - | - |
| 1777239092 | 26.67° C | 41% | 1012.1 hPa | 0 mm | - | - | - |
| 1777238492 | 26.67° C | 41% | 1012.3 hPa | 0 mm | - | - | - |
| 1777237892 | 26.67° C | 41% | 1012.4 hPa | 0 mm | - | - | - |
| 1777237292 | 26.67° C | 41% | 1012.5 hPa | 0 mm | - | - | - |
| 1777236692 | 27.22° C | 42% | 1012.7 hPa | 0 mm | - | - | - |
| 1777236092 | 27.22° C | 41% | 1013.1 hPa | 0 mm | - | - | - |
| 1777235492 | 26.67° C | 42% | 1013.3 hPa | 0 mm | - | - | - |
* Rain latest hour (hover to see other rain measurements)
** Current wind speed in m/s (hover to see current wind gust speed)